When you browse on this site, cookies collect data to enhance your experience and personalize the content and advertising you see.
Visit our Privacy Policy to learn more. By continuing to use the site, you agree to this use of cookies and data.
  • en Suisse
  • Liste des pays
  • À 7 jours
  • Température de l'eau
  • Carte satellitaire
  • Carte météo
  • Widgets météo
  • user-avatar
    Se connecter

    Météo par heure à Bautzen

    Ce jour, 26 Mai, Dimanche

    Heure Température Précipitation Vent Pression Humidité
    00:00 +10°C° 0 mm 1 m/s 744 mmHg 94%
    01:00 +9°C° 0 mm 1 m/s 744 mmHg 95%
    02:00 +9°C° 0 mm 1 m/s 744 mmHg 95%
    03:00 +9°C° 0 mm 1 m/s 744 mmHg 95%
    04:00 +9°C° 0 mm 1 m/s 744 mmHg 95%
    05:00 +10°C° 0 mm 1 m/s 744 mmHg 90%
    06:00 +12°C° 0 mm 2 m/s 744 mmHg 85%
    07:00 +14°C° 0 mm 2 m/s 744 mmHg 80%
    08:00 +14°C° 0 mm 3 m/s 744 mmHg 73%
    09:00 +17°C° 0 mm 3 m/s 743 mmHg 67%
    10:00 +19°C° 0 mm 4 m/s 743 mmHg 60%
    11:00 +19°C° 0 mm 4 m/s 743 mmHg 58%
    12:00 +20°C° 0 mm 4 m/s 742 mmHg 57%
    13:00 +21°C° 0 mm 5 m/s 742 mmHg 55%
    14:00 +21°C° 0 mm 5 m/s 742 mmHg 56%
    15:00 +21°C° 0 mm 4 m/s 741 mmHg 57%
    16:00 +22°C° 0 mm 4 m/s 741 mmHg 57%
    17:00 +21°C° 0 mm 3 m/s 741 mmHg 63%
    18:00 +19°C° 0 mm 3 m/s 741 mmHg 69%
    19:00 +18°C° 0 mm 2 m/s 741 mmHg 75%
    20:00 +17°C° 0 mm 2 m/s 741 mmHg 78%
    21:00 +16°C° 0 mm 2 m/s 741 mmHg 81%
    22:00 +15°C° 0 mm 2 m/s 741 mmHg 84%
    23:00 +14°C° 0 mm 2 m/s 740 mmHg 84%

    Demain, 27 Mai, Lundi

    Heure Température Précipitation Vent Pression Humidité
    00:00 +13°C° 0 mm 3 m/s 740 mmHg 84%
    01:00 +13°C° 0 mm 3 m/s 740 mmHg 85%
    02:00 +12°C° 0 mm 3 m/s 740 mmHg 84%
    03:00 +12°C° 0 mm 3 m/s 739 mmHg 84%
    04:00 +12°C° 0 mm 3 m/s 739 mmHg 83%
    05:00 +13°C° 0 mm 4 m/s 739 mmHg 80%
    06:00 +15°C° 0 mm 4 m/s 739 mmHg 78%
    07:00 +17°C° 0 mm 4 m/s 739 mmHg 75%
    08:00 +17°C° 0.1 mm 5 m/s 739 mmHg 71%
    09:00 +20°C° 0.1 mm 5 m/s 739 mmHg 68%
    10:00 +21°C° 0.1 mm 5 m/s 739 mmHg 65%
    11:00 +21°C° 0.8 mm 5 m/s 739 mmHg 68%
    12:00 +21°C° 0.8 mm 5 m/s 739 mmHg 72%
    13:00 +21°C° 0.8 mm 4 m/s 739 mmHg 75%
    14:00 +21°C° 0.6 mm 4 m/s 739 mmHg 74%
    15:00 +21°C° 0.6 mm 3 m/s 738 mmHg 72%
    16:00 +21°C° 0.6 mm 2 m/s 738 mmHg 71%
    17:00 +20°C° 0.5 mm 2 m/s 738 mmHg 76%
    18:00 +19°C° 0.5 mm 2 m/s 738 mmHg 82%
    19:00 +18°C° 0.5 mm 2 m/s 738 mmHg 87%
    20:00 +17°C° 0.1 mm 2 m/s 738 mmHg 89%
    21:00 +16°C° 0.1 mm 1 m/s 738 mmHg 90%
    22:00 +14°C° 0.1 mm 1 m/s 738 mmHg 92%
    23:00 +14°C° 0.2 mm 1 m/s 738 mmHg 92%

    Après-demain, 28 Mai, Mardi

    Heure Température Précipitation Vent Pression Humidité
    00:00 +14°C° 0.2 mm 1 m/s 737 mmHg 92%
    01:00 +14°C° 0.2 mm 1 m/s 737 mmHg 92%
    02:00 +14°C° 0.5 mm 1 m/s 737 mmHg 93%
    03:00 +13°C° 0.5 mm 2 m/s 736 mmHg 94%
    04:00 +13°C° 0.5 mm 2 m/s 736 mmHg 95%
    05:00 +13°C° 1.5 mm 2 m/s 736 mmHg 96%
    06:00 +13°C° 1.5 mm 2 m/s 736 mmHg 96%
    07:00 +13°C° 1.5 mm 2 m/s 736 mmHg 96%
    08:00 +13°C° 1.7 mm 2 m/s 736 mmHg 96%
    09:00 +12°C° 1.7 mm 3 m/s 736 mmHg 95%
    10:00 +12°C° 1.7 mm 3 m/s 737 mmHg 94%
    11:00 +12°C° 0.7 mm 3 m/s 737 mmHg 91%
    12:00 +14°C° 0.7 mm 2 m/s 737 mmHg 88%
    13:00 +14°C° 0.7 mm 2 m/s 737 mmHg 84%
    14:00 +15°C° 0.3 mm 2 m/s 737 mmHg 82%
    15:00 +15°C° 0.3 mm 1 m/s 737 mmHg 80%
    16:00 +15°C° 0.3 mm 1 m/s 737 mmHg 78%
    17:00 +15°C° 0 mm 1 m/s 737 mmHg 81%
    18:00 +14°C° 0 mm 1 m/s 738 mmHg 84%
    19:00 +14°C° 0 mm 1 m/s 738 mmHg 88%
    20:00 +13°C° 0 mm 1 m/s 738 mmHg 89%
    21:00 +12°C° 0 mm 1 m/s 738 mmHg 90%
    22:00 +12°C° 0 mm 1 m/s 739 mmHg 91%
    23:00 +11°C° 0 mm 1 m/s 739 mmHg 91%

    29 Mai, Mercredi

    Heure Température Précipitation Vent Pression Humidité
    00:00 +11°C° 0 mm 1 m/s 739 mmHg 91%
    01:00 +9°C° 0 mm 0 m/s 739 mmHg 91%
    02:00 +9°C° 0 mm 0 m/s 739 mmHg 92%
    03:00 +9°C° 0 mm 0 m/s 739 mmHg 92%
    04:00 +8°C° 0 mm 0 m/s 740 mmHg 93%
    05:00 +10°C° 0 mm 1 m/s 740 mmHg 91%
    06:00 +12°C° 0 mm 1 m/s 740 mmHg 89%
    07:00 +13°C° 0 mm 1 m/s 741 mmHg 87%
    08:00 +14°C° 0 mm 2 m/s 741 mmHg 82%
    09:00 +15°C° 0 mm 2 m/s 741 mmHg 76%
    10:00 +14°C° 0 mm 3 m/s 742 mmHg 71%
    11:00 +16°C° 0 mm 3 m/s 742 mmHg 65%
    12:00 +17°C° 0 mm 3 m/s 742 mmHg 58%
    13:00 +18°C° 0 mm 3 m/s 742 mmHg 52%
    14:00 +18°C° 0 mm 3 m/s 743 mmHg 52%
    15:00 +18°C° 0 mm 3 m/s 743 mmHg 52%
    16:00 +18°C° 0 mm 2 m/s 743 mmHg 52%
    17:00 +17°C° 0.1 mm 3 m/s 743 mmHg 61%
    18:00 +16°C° 0.1 mm 3 m/s 744 mmHg 70%
    19:00 +13°C° 0.1 mm 3 m/s 744 mmHg 79%
    20:00 +12°C° 0.1 mm 3 m/s 744 mmHg 83%
    21:00 +12°C° 0.1 mm 2 m/s 745 mmHg 88%
    22:00 +10°C° 0.1 mm 2 m/s 745 mmHg 92%
    23:00 +10°C° 0 mm 2 m/s 746 mmHg 92%

    30 Mai, Jeudi

    Heure Température Précipitation Vent Pression Humidité
    00:00 +9°C° 0 mm 2 m/s 746 mmHg 93%
    01:00 +9°C° 0 mm 2 m/s 746 mmHg 93%
    02:00 +9°C° 0.2 mm 2 m/s 746 mmHg 93%
    03:00 +8°C° 0.2 mm 2 m/s 747 mmHg 93%
    04:00 +8°C° 0.2 mm 2 m/s 747 mmHg 93%
    05:00 +8°C° 0.2 mm 2 m/s 747 mmHg 92%
    06:00 +9°C° 0.2 mm 1 m/s 748 mmHg 90%
    07:00 +9°C° 0.2 mm 1 m/s 748 mmHg 89%
    08:00 +11°C° 0.1 mm 1 m/s 748 mmHg 83%
    09:00 +13°C° 0.1 mm 1 m/s 749 mmHg 77%
    10:00 +14°C° 0.1 mm 1 m/s 749 mmHg 71%
    11:00 +14°C° 0.3 mm 1 m/s 749 mmHg 71%
    12:00 +14°C° 0.3 mm 2 m/s 748 mmHg 71%
    13:00 +14°C° 0.3 mm 2 m/s 748 mmHg 71%
    14:00 +15°C° 0 mm 2 m/s 748 mmHg 65%
    15:00 +16°C° 0 mm 2 m/s 748 mmHg 58%
    16:00 +17°C° 0 mm 2 m/s 748 mmHg 52%
    17:00 +17°C° 0 mm 2 m/s 748 mmHg 57%
    18:00 +16°C° 0 mm 1 m/s 748 mmHg 62%
    19:00 +15°C° 0 mm 1 m/s 748 mmHg 68%
    20:00 +14°C° 0 mm 1 m/s 748 mmHg 68%
    21:00 +13°C° 0 mm 2 m/s 749 mmHg 68%
    22:00 +13°C° 0 mm 2 m/s 749 mmHg 68%
    23:00 +12°C° 0 mm 2 m/s 749 mmHg 70%

    31 Mai, Vendredi

    Heure Température Précipitation Vent Pression Humidité
    00:00 +12°C° 0 mm 2 m/s 749 mmHg 73%
    01:00 +12°C° 0 mm 2 m/s 749 mmHg 75%
    02:00 +10°C° 0 mm 2 m/s 750 mmHg 81%
    03:00 +10°C° 0 mm 2 m/s 750 mmHg 87%
    04:00 +9°C° 0 mm 2 m/s 750 mmHg 93%
    05:00 +10°C° 0 mm 2 m/s 750 mmHg 90%
    06:00 +10°C° 0 mm 2 m/s 751 mmHg 88%
    07:00 +12°C° 0 mm 2 m/s 751 mmHg 85%
    08:00 +13°C° 0 mm 2 m/s 751 mmHg 81%
    09:00 +14°C° 0 mm 1 m/s 752 mmHg 76%
    10:00 +15°C° 0 mm 1 m/s 752 mmHg 71%
    11:00 +15°C° 0 mm 1 m/s 752 mmHg 70%
    12:00 +16°C° 0 mm 1 m/s 751 mmHg 69%
    13:00 +16°C° 0 mm 1 m/s 751 mmHg 68%
    14:00 +18°C° 0 mm 1 m/s 751 mmHg 68%
    15:00 +18°C° 0 mm 2 m/s 751 mmHg 67%
    16:00 +18°C° 0 mm 2 m/s 751 mmHg 67%
    17:00 +18°C° 0 mm 2 m/s 751 mmHg 71%
    18:00 +18°C° 0 mm 1 m/s 751 mmHg 74%
    19:00 +18°C° 0 mm 1 m/s 751 mmHg 78%
    20:00 +16°C° 0 mm 1 m/s 751 mmHg 81%
    21:00 +15°C° 0 mm 1 m/s 751 mmHg 84%
    22:00 +14°C° 0 mm 2 m/s 751 mmHg 87%
    23:00 +14°C° 0.1 mm 2 m/s 751 mmHg 88%
    Voir plus